Find Starlink 32430

NORAD ID: 62207 Int'l Des: 2024-229 Owner: SPXS Country: US Constellation: starlink operational
LEOCIRCULAR

实时位置

正在加载3D地球...

关于 Starlink 32430

正在加载描述...

即将过境

Passes for default location (London). Set your location on the main map for personalized predictions.

高度历史

Loading altitude history...

两行轨道根数

1 62207U 24229R 26121.87655446 .00018868 00000-0 69380-3 0 9993
2 62207 43.0010 327.0582 0001218 251.7207 108.3512 15.27561700 78739
Epoch: May 1, 2026 • Age: 4 hours

当前状态

高度 482.6 km
速度 7.63 km/s
星下点 20.17°N, 109.27°W
发射日期 Dec 4, 2024
运行时间 1.4 years
类型 internet

技术详情

分类 Payload
质量 730.00 kg
干质量 700.00 kg
总质量 730.00 kg
长度 0.30 m
直径 4.10 m
跨度 29.00 m
形状 Box + pan
制造商 SPXS
平台类型 Starlink V2M
阶段状态 In Orbit
所有者/国家 SPXS/US

Most Searched